Weather in Kirovo

Russia / Saratov Oblast     50°48′22″N   46°41′57″E
В апреле 2022 года жителям России запретили посещать сайт meteo.paraplan.net по решению Генеральной прокуратуры. Аудитория сайта уменьшилась в 10 раз. Владельцы сайта не видят смысла в поддержке погодного сервера в таких условиях. Сайт будет закрыт в октябре.
temp.,
°C
wind,
m/s
gust,
m/s
humid.,
%
clouds,
%
prec.,
mm/h
press.,
hPa
HPBL,
m
30 september, fri
fri3001:00+15n238060 0.0 101529
04:00+13nne358684 0.0 101782
07:00+12nne3391100 0.0 101849
10:00+16nne237347 0.0 1020306
13:00+20ne1158100 0.0 1020829
16:00+21ene1154100 0.0 10201137
19:00+18ne1265100 0.0 102111
22:00+17ene227171 0.0 102213
1 october, sat
sat101:00+15e227821 0.0 102216
04:00+14ese228223 0.0 102220
07:00+13ese228432 0.0 102322
10:00+18se336470 0.0 1023356
13:00+22sse335244 0.0 10221249
16:00+23ssw444662 0.0 10211636
19:00+19s2357100 0.0 102028
22:00+18sse356258 0.0 101974
2 october, sun
sun201:00+17sse36687 0.0 1018100
04:00+16s4972100 0.1 1017174
07:00+16s51175100 0.5 1017276
10:00+19s586292 0.7 1016318
13:00+23s6851100 0.5 10151004
16:00+25ssw6845100 0.5 10141684
19:00+21sse4956100 0.0 1013169
22:00+20sse61458100 0.3 1012372
3 october, mon
mon301:00+19sse61455100 0.0 1012343
04:00+17sse61453100 0.0 1012433
07:00+16sse81754100 0.0 1012539
10:00+19sse101742100 0.0 1012958
13:00+22sse111835100 0.0 10131387
16:00+21sse101736100 0.0 10131586
19:00+19sse101638100 0.0 10141121
22:00+17sse101738100 0.0 1015809
4 october, tue
tue401:00+16sse91733100 0.0 1016809
04:00+16sse81531100 0.0 1017735
07:00+15sse61334100 0.0 1017572
10:00+15s5940100 0.0 1019720
13:00+15sse5953100 0.1 1020686
16:00+13sse3968100 0.8 1022633
19:00+12ssw2577100 1.0 1023257
22:00+12se4776100 1.5 1024355